Lobo

Go HERE for most recent data if this page is not up to date.

Jump to table bottom
Date/Time Temp deg F RH % 24 Hr Snow (in) Snow Depth (in) H2O (in)
06/15 18:00 55.1 41 "NAN" 0.0 0.00
06/15 17:00 56.5 40 "NAN" 0.1 0.00
06/15 16:00 56.2 42 "NAN" -0.6 0.00
06/15 15:00 57.6 39 "NAN" -0.2 0.00
06/15 14:00 56.9 41 "NAN" 0.9 0.00
06/15 13:00 56.3 37 "NAN" 2.0 0.00
06/15 12:00 52.8 34 "NAN" 2.9 0.00
06/15 11:00 52.5 41 "NAN" 2.9 0.00
06/15 10:00 50.4 52 "NAN" 3.9 0.00
06/15 09:00 47.4 51 "NAN" 3.7 0.00
06/15 08:00 45.4 56 "NAN" 3.7 0.00
06/15 07:00 43.9 62 "NAN" 3.7 0.00
06/15 06:00 42.4 63 "NAN" 3.5 0.00
06/15 05:00 42.5 65 "NAN" 3.9 0.00
06/15 04:00 42.9 67 "NAN" 3.7 0.00
06/15 03:00 43.6 67 "NAN" 3.5 0.00
06/15 02:00 44.3 72 "NAN" 3.3 0.00
06/15 01:00 45.1 66 "NAN" 3.2 0.00
06/15 00:00 45.5 66 "NAN" 3.5 0.00
06/14 23:00 48.3 63 "NAN" 3.2 0.00
06/14 22:00 50.8 51 "NAN" 3.1 0.00
06/14 21:00 52.3 50 "NAN" 3.6 0.00
06/14 20:00 54.3 47 "NAN" 2.9 0.00
06/14 19:00 55.6 45 "NAN" 3.5 0.00
06/14 18:00 56.3 39 "NAN" 3.4 0.00
06/14 17:00 56.8 35 "NAN" 3.5 0.00
06/14 16:00 57.0 44 "NAN" 3.4 0.00
06/14 15:00 56.8 42 "NAN" 3.6 0.00
06/14 14:00 54.2 46 "NAN" 4.3 0.00
06/14 13:00 53.7 50 "NAN" 5.6 0.00
06/14 12:00 52.4 53 "NAN" 6.4 0.00
06/14 11:00 50.7 57 "NAN" 6.7 0.00
06/14 10:00 48.3 70 "NAN" 6.6 0.00
06/14 09:00 46.9 76 "NAN" 7.2 0.00
06/14 08:00 47.2 68 "NAN" 7.6 0.00
06/14 07:00 46.6 64 "NAN" 7.5 0.00
06/14 06:00 44.4 64 "NAN" 7.7 0.00
06/14 05:00 44.2 79 "NAN" 7.3 0.00
06/14 04:00 44.4 78 "NAN" 7.3 0.00
06/14 03:00 45.3 75 "NAN" 7.3 0.00
06/14 02:00 46.3 72 "NAN" 7.4 0.00
06/14 01:00 46.8 71 "NAN" 7.6 0.00
06/14 00:00 47.4 65 "NAN" 8.1 0.00
.